LVMSA SADF-SAAR

Flight info

Callsign LVMSA
Flight time 1h 11m
Altitude 6000
Route DCT ATOVO W5 DCT
Aircraft BE36/L-S/C

Departure

Time 2026-04-24 00:24
Airport San Fernando Airport (SADF)

Arrival

Time 2026-04-24 01:36
Airport Rosario Islas Malvinas International Airport (SAAR)
Time Latitude Longitude Altitude Speed Heading
2026-04-24 00:12 -34.45935 -58.59265 9 ft 0 kts 62°
2026-04-24 00:19 -34.45925 -58.59262 9 ft 4 kts 342°
2026-04-24 00:19 -34.45898 -58.59294 9 ft 7 kts 253°
2026-04-24 00:19 -34.45924 -58.59359 9 ft 9 kts 243°
2026-04-24 00:19 -34.45960 -58.59441 9 ft 12 kts 243°
2026-04-24 00:20 -34.46002 -58.59538 9 ft 13 kts 242°
2026-04-24 00:20 -34.46026 -58.59598 9 ft 0 kts 255°
2026-04-24 00:23 -34.46030 -58.59617 9 ft 6 kts 263°
2026-04-24 00:23 -34.45985 -58.59680 9 ft 13 kts 351°
2026-04-24 00:23 -34.45896 -58.59605 9 ft 27 kts 46°
2026-04-24 00:23 -34.45616 -58.59276 9 ft 78 kts 44°
2026-04-24 00:24 -34.45186 -58.58773 85 ft 88 kts 42°
2026-04-24 00:24 -34.44737 -58.58214 286 ft 95 kts 45°
2026-04-24 00:24 -34.44303 -58.57648 500 ft 92 kts 44°
2026-04-24 00:24 -34.43863 -58.57071 663 ft 93 kts 46°
2026-04-24 00:25 -34.43406 -58.56514 830 ft 93 kts 40°
2026-04-24 00:25 -34.42916 -58.56006 1001 ft 92 kts 38°
2026-04-24 00:25 -34.42435 -58.55492 1161 ft 92 kts 41°
2026-04-24 00:25 -34.41975 -58.54952 1314 ft 93 kts 42°
2026-04-24 00:26 -34.41524 -58.54391 1476 ft 92 kts 43°
2026-04-24 00:26 -34.41088 -58.53827 1632 ft 91 kts 43°
2026-04-24 00:26 -34.40656 -58.53277 1787 ft 90 kts 43°
2026-04-24 00:26 -34.40239 -58.52699 1932 ft 91 kts 42°
2026-04-24 00:27 -34.39771 -58.52165 2052 ft 94 kts 38°
2026-04-24 00:27 -34.39177 -58.51889 2173 ft 97 kts 357°
2026-04-24 00:27 -34.38555 -58.52226 2338 ft 98 kts 328°
2026-04-24 00:27 -34.38117 -58.52910 2442 ft 106 kts 304°
2026-04-24 00:28 -34.37693 -58.53604 2554 ft 105 kts 328°
2026-04-24 00:28 -34.37176 -58.54252 2679 ft 110 kts 300°
2026-04-24 00:28 -34.36843 -58.55023 2902 ft 102 kts 302°
2026-04-24 00:28 -34.36478 -58.55815 2987 ft 107 kts 302°
2026-04-24 00:29 -34.36119 -58.56589 3152 ft 104 kts 303°
2026-04-24 00:29 -34.35775 -58.57346 3317 ft 101 kts 302°
2026-04-24 00:29 -34.35434 -58.58087 3486 ft 100 kts 303°
2026-04-24 00:29 -34.35095 -58.58814 3654 ft 99 kts 302°
2026-04-24 00:30 -34.34755 -58.59545 3826 ft 100 kts 302°
2026-04-24 00:30 -34.34413 -58.60278 3998 ft 100 kts 301°
2026-04-24 00:30 -34.34068 -58.61012 4170 ft 101 kts 302°
2026-04-24 00:30 -34.33714 -58.61755 4344 ft 101 kts 302°
2026-04-24 00:31 -34.33367 -58.62481 4515 ft 101 kts 302°
2026-04-24 00:31 -34.33017 -58.63217 4686 ft 100 kts 302°
2026-04-24 00:31 -34.32663 -58.63952 4858 ft 99 kts 302°
2026-04-24 00:31 -34.32316 -58.64664 5028 ft 98 kts 302°
2026-04-24 00:32 -34.31971 -58.65375 5196 ft 97 kts 302°
2026-04-24 00:32 -34.31630 -58.66069 5365 ft 96 kts 302°
2026-04-24 00:32 -34.31292 -58.66756 5536 ft 95 kts 302°
2026-04-24 00:32 -34.30954 -58.67436 5708 ft 94 kts 302°
2026-04-24 00:33 -34.30609 -58.68100 5871 ft 93 kts 313°
2026-04-24 00:33 -34.30130 -58.68610 6041 ft 90 kts 321°
2026-04-24 00:33 -34.29660 -58.69103 6212 ft 89 kts 320°
2026-04-24 00:33 -34.29136 -58.69653 6187 ft 109 kts 320°
2026-04-24 00:34 -34.28508 -58.70315 6093 ft 130 kts 320°
2026-04-24 00:34 -34.27783 -58.71088 5979 ft 147 kts 320°
2026-04-24 00:34 -34.26981 -58.71941 5937 ft 155 kts 320°
2026-04-24 00:34 -34.26187 -58.72776 6108 ft 146 kts 320°
2026-04-24 00:35 -34.25418 -58.73582 6153 ft 150 kts 320°
2026-04-24 00:35 -34.24603 -58.74441 6102 ft 158 kts 320°
2026-04-24 00:35 -34.23759 -58.75328 6027 ft 165 kts 320°
2026-04-24 00:35 -34.22890 -58.76235 6042 ft 166 kts 320°
2026-04-24 00:36 -34.22014 -58.77151 6049 ft 167 kts 320°
2026-04-24 00:36 -34.21131 -58.78070 6046 ft 168 kts 320°
2026-04-24 00:36 -34.20234 -58.79010 6042 ft 168 kts 320°
2026-04-24 00:36 -34.19376 -58.79925 6035 ft 161 kts 320°
2026-04-24 00:37 -34.18545 -58.80813 6034 ft 155 kts 321°
2026-04-24 00:37 -34.17748 -58.81665 6034 ft 151 kts 320°
2026-04-24 00:37 -34.16962 -58.82494 6035 ft 148 kts 320°
2026-04-24 00:37 -34.16198 -58.83301 6037 ft 145 kts 320°
2026-04-24 00:38 -34.15442 -58.84099 6037 ft 143 kts 320°
2026-04-24 00:38 -34.14831 -58.85045 6048 ft 143 kts 298°
2026-04-24 00:38 -34.14388 -58.86121 6038 ft 143 kts 298°
2026-04-24 00:38 -34.13973 -58.87213 6040 ft 142 kts 292°
2026-04-24 00:39 -34.13625 -58.88329 6038 ft 142 kts 292°
2026-04-24 00:39 -34.13284 -58.89449 6037 ft 141 kts 292°
2026-04-24 00:39 -34.12942 -58.90556 6037 ft 141 kts 292°
2026-04-24 00:39 -34.12593 -58.91691 6036 ft 143 kts 292°
2026-04-24 00:40 -34.12251 -58.92806 6035 ft 143 kts 292°
2026-04-24 00:40 -34.11909 -58.93926 6037 ft 142 kts 292°
2026-04-24 00:40 -34.11563 -58.95054 6038 ft 142 kts 292°
2026-04-24 00:40 -34.11225 -58.96172 6039 ft 142 kts 292°
2026-04-24 00:41 -34.10889 -58.97275 6040 ft 142 kts 292°
2026-04-24 00:41 -34.10550 -58.98404 6040 ft 142 kts 292°
2026-04-24 00:41 -34.10211 -58.99520 6039 ft 142 kts 292°
2026-04-24 00:41 -34.09869 -59.00635 6038 ft 141 kts 292°
2026-04-24 00:42 -34.09531 -59.01738 6038 ft 141 kts 292°
2026-04-24 00:42 -34.09090 -59.02782 6041 ft 138 kts 306°
2026-04-24 00:42 -34.08524 -59.03715 6037 ft 138 kts 308°
2026-04-24 00:42 -34.07944 -59.04663 6037 ft 138 kts 308°
2026-04-24 00:43 -34.07379 -59.05584 6038 ft 138 kts 308°
2026-04-24 00:43 -34.06799 -59.06526 6037 ft 138 kts 308°
2026-04-24 00:43 -34.06234 -59.07462 6037 ft 139 kts 308°
2026-04-24 00:43 -34.05665 -59.08400 6038 ft 139 kts 308°
2026-04-24 00:44 -34.05095 -59.09352 6037 ft 139 kts 308°
2026-04-24 00:44 -34.04523 -59.10298 6035 ft 139 kts 308°
2026-04-24 00:44 -34.03949 -59.11243 6031 ft 139 kts 308°
2026-04-24 00:44 -34.03375 -59.12179 6026 ft 140 kts 308°
2026-04-24 00:45 -34.02790 -59.13130 6021 ft 140 kts 308°
2026-04-24 00:45 -34.02216 -59.14071 6019 ft 139 kts 308°
2026-04-24 00:45 -34.01643 -59.15013 6020 ft 139 kts 308°
2026-04-24 00:45 -34.01069 -59.15957 6020 ft 139 kts 308°
2026-04-24 00:46 -34.00498 -59.16900 6019 ft 139 kts 308°
2026-04-24 00:46 -33.99926 -59.17835 6019 ft 139 kts 309°
2026-04-24 00:46 -33.99352 -59.18787 6019 ft 139 kts 308°
2026-04-24 00:46 -33.98787 -59.19717 6020 ft 139 kts 308°
2026-04-24 00:47 -33.98206 -59.20673 6020 ft 139 kts 308°
2026-04-24 00:47 -33.97642 -59.21608 6020 ft 140 kts 308°
2026-04-24 00:47 -33.97072 -59.22558 6020 ft 140 kts 308°
2026-04-24 00:47 -33.96499 -59.23521 6019 ft 140 kts 308°
2026-04-24 00:48 -33.95939 -59.24468 6019 ft 139 kts 308°
2026-04-24 00:48 -33.95376 -59.25409 6019 ft 139 kts 308°
2026-04-24 00:48 -33.94808 -59.26356 6019 ft 139 kts 308°
2026-04-24 00:48 -33.94235 -59.27311 6019 ft 139 kts 308°
2026-04-24 00:49 -33.93670 -59.28257 6020 ft 139 kts 308°
2026-04-24 00:49 -33.93100 -59.29195 6019 ft 139 kts 308°
2026-04-24 00:49 -33.92530 -59.30130 6020 ft 139 kts 308°
2026-04-24 00:49 -33.91964 -59.31070 6020 ft 139 kts 308°
2026-04-24 00:50 -33.91394 -59.32011 6019 ft 139 kts 308°
2026-04-24 00:50 -33.90823 -59.32951 6019 ft 139 kts 308°
2026-04-24 00:50 -33.90253 -59.33892 6020 ft 139 kts 308°
2026-04-24 00:50 -33.89684 -59.34836 6021 ft 139 kts 308°
2026-04-24 00:51 -33.89119 -59.35780 6021 ft 139 kts 308°
2026-04-24 00:51 -33.88550 -59.36736 6022 ft 139 kts 308°
2026-04-24 00:51 -33.87982 -59.37682 6022 ft 139 kts 308°
2026-04-24 00:51 -33.87414 -59.38622 6021 ft 139 kts 308°
2026-04-24 00:52 -33.86838 -59.39572 6022 ft 139 kts 308°
2026-04-24 00:52 -33.86272 -59.40510 6021 ft 139 kts 309°
2026-04-24 00:52 -33.85700 -59.41462 6021 ft 139 kts 308°
2026-04-24 00:52 -33.85131 -59.42396 6022 ft 139 kts 308°
2026-04-24 00:53 -33.84559 -59.43342 6021 ft 140 kts 308°
2026-04-24 00:53 -33.83982 -59.44293 6021 ft 140 kts 308°
2026-04-24 00:53 -33.83418 -59.45238 6020 ft 140 kts 308°
2026-04-24 00:53 -33.82846 -59.46195 6021 ft 140 kts 308°
2026-04-24 00:54 -33.82281 -59.47147 6021 ft 140 kts 308°
2026-04-24 00:54 -33.81715 -59.48091 6022 ft 140 kts 308°
2026-04-24 00:54 -33.81148 -59.49038 6022 ft 140 kts 308°
2026-04-24 00:54 -33.80578 -59.49988 6022 ft 140 kts 308°
2026-04-24 00:55 -33.80000 -59.50945 6022 ft 140 kts 308°
2026-04-24 00:55 -33.79431 -59.51891 6021 ft 140 kts 308°
2026-04-24 00:55 -33.78862 -59.52832 6022 ft 140 kts 308°
2026-04-24 00:55 -33.78284 -59.53788 6021 ft 140 kts 308°
2026-04-24 00:56 -33.77716 -59.54735 6021 ft 139 kts 308°
2026-04-24 00:56 -33.77152 -59.55679 6021 ft 139 kts 308°
2026-04-24 00:56 -33.76584 -59.56628 6022 ft 139 kts 308°
2026-04-24 00:56 -33.76020 -59.57574 6022 ft 139 kts 309°
2026-04-24 00:57 -33.75452 -59.58525 6022 ft 139 kts 309°
2026-04-24 00:57 -33.74887 -59.59477 6022 ft 139 kts 308°
2026-04-24 00:57 -33.73763 -59.61371 6024 ft 139 kts 308°
2026-04-24 00:58 -33.73193 -59.62325 6024 ft 139 kts 308°
2026-04-24 00:58 -33.72632 -59.63273 6024 ft 140 kts 308°
2026-04-24 00:58 -33.72069 -59.64216 6024 ft 139 kts 308°
2026-04-24 00:58 -33.71495 -59.65180 6024 ft 139 kts 309°
2026-04-24 00:59 -33.70935 -59.66124 6025 ft 139 kts 309°
2026-04-24 00:59 -33.70371 -59.67074 6024 ft 139 kts 309°
2026-04-24 00:59 -33.69802 -59.68015 6024 ft 139 kts 309°
2026-04-24 00:59 -33.69241 -59.68958 6024 ft 139 kts 309°
2026-04-24 01:00 -33.68670 -59.69908 6024 ft 139 kts 309°
2026-04-24 01:00 -33.68110 -59.70840 6025 ft 139 kts 309°
2026-04-24 01:00 -33.67546 -59.71793 6024 ft 139 kts 309°
2026-04-24 01:00 -33.66978 -59.72739 6024 ft 139 kts 309°
2026-04-24 01:01 -33.66417 -59.73681 6025 ft 138 kts 309°
2026-04-24 01:01 -33.65856 -59.74630 6027 ft 138 kts 309°
2026-04-24 01:01 -33.65302 -59.75571 6029 ft 138 kts 309°
2026-04-24 01:01 -33.64747 -59.76510 6032 ft 138 kts 309°
2026-04-24 01:02 -33.64191 -59.77445 6035 ft 138 kts 309°
2026-04-24 01:02 -33.63630 -59.78388 6037 ft 138 kts 309°
2026-04-24 01:02 -33.63074 -59.79326 6035 ft 138 kts 308°
2026-04-24 01:02 -33.62519 -59.80264 6034 ft 138 kts 308°
2026-04-24 01:03 -33.61961 -59.81197 6033 ft 138 kts 309°
2026-04-24 01:03 -33.61398 -59.82148 6032 ft 138 kts 309°
2026-04-24 01:03 -33.60744 -59.82957 6032 ft 136 kts 320°
2026-04-24 01:03 -33.60054 -59.83731 6033 ft 136 kts 320°
2026-04-24 01:04 -33.59355 -59.84514 6034 ft 136 kts 320°
2026-04-24 01:04 -33.58667 -59.85293 6033 ft 136 kts 319°
2026-04-24 01:04 -33.57982 -59.86064 6032 ft 136 kts 320°
2026-04-24 01:04 -33.57288 -59.86857 6032 ft 136 kts 320°
2026-04-24 01:05 -33.56602 -59.87640 6034 ft 136 kts 320°
2026-04-24 01:05 -33.55914 -59.88419 6034 ft 136 kts 320°
2026-04-24 01:05 -33.55227 -59.89199 6033 ft 136 kts 320°
2026-04-24 01:05 -33.54536 -59.89977 6034 ft 136 kts 320°
2026-04-24 01:06 -33.53838 -59.90754 6035 ft 136 kts 320°
2026-04-24 01:06 -33.53145 -59.91530 6035 ft 136 kts 320°
2026-04-24 01:06 -33.52447 -59.92319 6034 ft 136 kts 320°
2026-04-24 01:06 -33.51759 -59.93088 6035 ft 136 kts 320°
2026-04-24 01:07 -33.51066 -59.93868 6032 ft 136 kts 320°
2026-04-24 01:07 -33.50370 -59.94652 6032 ft 136 kts 320°
2026-04-24 01:07 -33.49677 -59.95425 6031 ft 136 kts 320°
2026-04-24 01:07 -33.48980 -59.96204 6031 ft 136 kts 320°
2026-04-24 01:08 -33.48294 -59.96972 6031 ft 136 kts 320°
2026-04-24 01:08 -33.47598 -59.97758 6031 ft 136 kts 320°
2026-04-24 01:08 -33.46914 -59.98533 6029 ft 136 kts 320°
2026-04-24 01:08 -33.46223 -59.99319 6028 ft 136 kts 320°
2026-04-24 01:09 -33.45536 -60.00101 6026 ft 136 kts 320°
2026-04-24 01:09 -33.44860 -60.00871 6030 ft 136 kts 320°
2026-04-24 01:09 -33.44167 -60.01656 6035 ft 135 kts 320°
2026-04-24 01:09 -33.43475 -60.02431 6036 ft 135 kts 320°
2026-04-24 01:10 -33.42791 -60.03201 6037 ft 135 kts 320°
2026-04-24 01:10 -33.42106 -60.03968 6038 ft 135 kts 320°
2026-04-24 01:10 -33.41414 -60.04746 6038 ft 135 kts 320°
2026-04-24 01:10 -33.40726 -60.05517 6037 ft 135 kts 320°
2026-04-24 01:11 -33.40041 -60.06289 6039 ft 135 kts 320°
2026-04-24 01:11 -33.39363 -60.07054 6038 ft 135 kts 320°
2026-04-24 01:11 -33.38672 -60.07838 6037 ft 135 kts 320°
2026-04-24 01:11 -33.37993 -60.08616 6038 ft 135 kts 320°
2026-04-24 01:12 -33.37307 -60.09393 6037 ft 135 kts 320°
2026-04-24 01:12 -33.36624 -60.10169 6038 ft 135 kts 320°
2026-04-24 01:12 -33.35940 -60.10942 6037 ft 136 kts 320°
2026-04-24 01:12 -33.35257 -60.11713 6038 ft 135 kts 320°
2026-04-24 01:13 -33.34565 -60.12489 6037 ft 135 kts 320°
2026-04-24 01:13 -33.33884 -60.13262 6039 ft 135 kts 320°
2026-04-24 01:13 -33.33188 -60.14046 5968 ft 141 kts 320°
2026-04-24 01:13 -33.32457 -60.14874 5835 ft 148 kts 320°
2026-04-24 01:14 -33.31688 -60.15741 5695 ft 154 kts 320°
2026-04-24 01:14 -33.30893 -60.16634 5552 ft 158 kts 321°
2026-04-24 01:14 -33.30003 -60.17430 5401 ft 161 kts 327°
2026-04-24 01:14 -33.29094 -60.18228 5232 ft 165 kts 327°
2026-04-24 01:15 -33.28169 -60.19038 5060 ft 165 kts 326°
2026-04-24 01:15 -33.27231 -60.19861 4882 ft 166 kts 327°
2026-04-24 01:15 -33.26308 -60.20679 4706 ft 166 kts 327°
2026-04-24 01:15 -33.25380 -60.21509 4531 ft 166 kts 327°
2026-04-24 01:16 -33.24451 -60.22343 4356 ft 166 kts 327°
2026-04-24 01:16 -33.23535 -60.23183 4180 ft 167 kts 327°
2026-04-24 01:16 -33.22617 -60.24025 4005 ft 167 kts 327°
2026-04-24 01:16 -33.21693 -60.24869 3828 ft 167 kts 327°
2026-04-24 01:17 -33.20766 -60.25716 3651 ft 167 kts 327°
2026-04-24 01:17 -33.19858 -60.26562 3477 ft 167 kts 327°
2026-04-24 01:17 -33.18937 -60.27401 3300 ft 166 kts 329°
2026-04-24 01:17 -33.18002 -60.28220 3124 ft 167 kts 329°
2026-04-24 01:18 -33.17055 -60.29047 2946 ft 167 kts 329°
2026-04-24 01:18 -33.16150 -60.29845 2926 ft 159 kts 328°
2026-04-24 01:18 -33.15259 -60.30623 2932 ft 156 kts 329°
2026-04-24 01:18 -33.14391 -60.31384 2938 ft 155 kts 329°
2026-04-24 01:19 -33.13526 -60.32148 2936 ft 154 kts 329°
2026-04-24 01:19 -33.12667 -60.32907 2939 ft 153 kts 329°
2026-04-24 01:19 -33.11808 -60.33662 2937 ft 153 kts 329°
2026-04-24 01:19 -33.10954 -60.34420 2940 ft 152 kts 328°
2026-04-24 01:20 -33.10096 -60.35179 2940 ft 152 kts 329°
2026-04-24 01:20 -33.09244 -60.35930 2941 ft 152 kts 329°
2026-04-24 01:20 -33.08389 -60.36685 2939 ft 152 kts 329°
2026-04-24 01:20 -33.07546 -60.37430 2938 ft 152 kts 329°
2026-04-24 01:21 -33.06691 -60.38182 2936 ft 153 kts 329°
2026-04-24 01:21 -33.05827 -60.38945 2935 ft 152 kts 329°
2026-04-24 01:21 -33.04979 -60.39693 2937 ft 152 kts 329°
2026-04-24 01:21 -33.04125 -60.40444 2935 ft 152 kts 329°
2026-04-24 01:22 -33.03269 -60.41198 2935 ft 152 kts 329°
2026-04-24 01:22 -33.02424 -60.41956 2935 ft 152 kts 328°
2026-04-24 01:22 -33.01572 -60.42712 2936 ft 152 kts 329°
2026-04-24 01:22 -33.00727 -60.43461 2938 ft 152 kts 329°
2026-04-24 01:23 -32.99880 -60.44212 2937 ft 152 kts 329°
2026-04-24 01:23 -32.99023 -60.44975 2938 ft 152 kts 326°
2026-04-24 01:23 -32.98188 -60.45727 2935 ft 151 kts 330°
2026-04-24 01:23 -32.97316 -60.46459 2933 ft 151 kts 330°
2026-04-24 01:24 -32.96459 -60.47172 2933 ft 151 kts 330°
2026-04-24 01:24 -32.95584 -60.47895 2935 ft 151 kts 330°
2026-04-24 01:24 -32.94719 -60.48612 2933 ft 152 kts 330°
2026-04-24 01:24 -32.93856 -60.49336 2930 ft 152 kts 330°
2026-04-24 01:25 -32.92987 -60.50066 2929 ft 152 kts 330°
2026-04-24 01:25 -32.92120 -60.50790 2929 ft 152 kts 330°
2026-04-24 01:25 -32.91262 -60.51502 2924 ft 152 kts 330°
2026-04-24 01:25 -32.90389 -60.52213 2922 ft 151 kts 332°
2026-04-24 01:26 -32.89497 -60.52906 2924 ft 151 kts 332°
2026-04-24 01:26 -32.88625 -60.53583 2931 ft 150 kts 332°
2026-04-24 01:26 -32.87740 -60.54268 2929 ft 151 kts 332°
2026-04-24 01:26 -32.86855 -60.54946 2930 ft 151 kts 332°
2026-04-24 01:27 -32.85964 -60.55629 2927 ft 152 kts 332°
2026-04-24 01:27 -32.85084 -60.56302 2924 ft 152 kts 332°
2026-04-24 01:27 -32.84183 -60.56987 2924 ft 152 kts 332°
2026-04-24 01:27 -32.83300 -60.57663 2926 ft 152 kts 332°
2026-04-24 01:28 -32.82400 -60.58353 2926 ft 152 kts 332°
2026-04-24 01:28 -32.81513 -60.59029 2926 ft 152 kts 332°
2026-04-24 01:28 -32.80627 -60.59721 2926 ft 152 kts 332°
2026-04-24 01:28 -32.79744 -60.60402 2925 ft 152 kts 332°
2026-04-24 01:29 -32.78848 -60.61101 2925 ft 152 kts 332°
2026-04-24 01:29 -32.77966 -60.61790 2924 ft 152 kts 333°
2026-04-24 01:29 -32.77298 -60.62789 2933 ft 163 kts 293°
2026-04-24 01:29 -32.77023 -60.64106 2927 ft 166 kts 282°
2026-04-24 01:30 -32.76879 -60.65463 2916 ft 165 kts 281°
2026-04-24 01:30 -32.76771 -60.66813 2840 ft 164 kts 279°
2026-04-24 01:30 -32.76704 -60.68176 2753 ft 165 kts 277°
2026-04-24 01:30 -32.76665 -60.69549 2629 ft 166 kts 277°
2026-04-24 01:31 -32.76610 -60.70909 2531 ft 165 kts 277°
2026-04-24 01:31 -32.76523 -60.72259 2474 ft 161 kts 278°
2026-04-24 01:31 -32.76466 -60.73544 2510 ft 152 kts 276°
2026-04-24 01:31 -32.76904 -60.74656 2492 ft 153 kts 219°
2026-04-24 01:32 -32.77846 -60.75205 2466 ft 150 kts 199°
2026-04-24 01:32 -32.78821 -60.75639 2477 ft 147 kts 194°
2026-04-24 01:32 -32.79731 -60.76005 2472 ft 126 kts 194°
2026-04-24 01:32 -32.80512 -60.76309 2421 ft 111 kts 191°
2026-04-24 01:33 -32.81246 -60.76559 2324 ft 108 kts 188°
2026-04-24 01:33 -32.81975 -60.76760 2207 ft 109 kts 183°
2026-04-24 01:33 -32.82734 -60.76902 2049 ft 110 kts 181°
2026-04-24 01:33 -32.83496 -60.77028 1857 ft 108 kts 180°
2026-04-24 01:34 -32.84221 -60.77148 1644 ft 103 kts 182°
2026-04-24 01:34 -32.84904 -60.77286 1411 ft 97 kts 186°
2026-04-24 01:34 -32.85545 -60.77428 1166 ft 92 kts 184°
2026-04-24 01:34 -32.86157 -60.77553 933 ft 86 kts 185°
2026-04-24 01:35 -32.86734 -60.77672 719 ft 84 kts 185°
2026-04-24 01:35 -32.87320 -60.77784 516 ft 84 kts 186°
2026-04-24 01:35 -32.87883 -60.77907 367 ft 82 kts 187°
2026-04-24 01:35 -32.88447 -60.78034 251 ft 81 kts 187°
2026-04-24 01:36 -32.89002 -60.78158 132 ft 79 kts 188°
2026-04-24 01:36 -32.89464 -60.78261 82 ft 56 kts 188°
2026-04-24 01:36 -32.89803 -60.78333 85 ft 46 kts 189°
2026-04-24 01:36 -32.90116 -60.78404 88 ft 44 kts 191°
2026-04-24 01:37 -32.90414 -60.78476 89 ft 43 kts 191°
2026-04-24 01:37 -32.90707 -60.78545 89 ft 41 kts 191°
2026-04-24 01:37 -32.90973 -60.78535 89 ft 38 kts 159°
2026-04-24 01:37 -32.91184 -60.78384 86 ft 32 kts 141°
2026-04-24 01:38 -32.91341 -60.78233 83 ft 26 kts 141°
2026-04-24 01:38 -32.91406 -60.78182 82 ft 2 kts 153°
2026-04-24 01:38 -32.91435 -60.78164 82 ft 7 kts 173°
2026-04-24 01:38 -32.91512 -60.78200 83 ft 15 kts 202°
2026-04-24 01:39 -32.91625 -60.78253 83 ft 17 kts 201°
2026-04-24 01:39 -32.91749 -60.78246 82 ft 16 kts 173°
2026-04-24 01:39 -32.91832 -60.78246 82 ft 10 kts 98°
2026-04-24 01:39 -32.91809 -60.78224 82 ft 0 kts 14°